Location: Remedello Sotto
(45.2500°N, 10.3667°E)
Time: 10:01:48
(UTC+00:00)

SL-08 ROCKET BODY - Pass Details

Date: 03 February 2023
Orbit: 897 x 962 km, 83.0° (Epoch: 31 March)

Event Time Altitude Azimuth Distance (km) Brightness Sun altitude
Rises 17:31:05 0° 351° (N) 3,545 7.4 -11.4°
Reaches altitude 10° 17:33:34 10° 351° (N) 2,593 6.7 -11.8°
Maximum altitude 17:39:28 86° 263° (W) 907 4.4 -12.8°
Drops below altitude 10° 17:45:18 10° 176° (S) 2,563 6.8 -13.8°
Sets 17:47:43 0° 176° (S) 3,500 7.5 -14.3°
